{"data":{"norad_id":64327,"intl_designator":"2025-124L","name":"STARLINK-11674 [DTC]","alt_names":[],"object_type":"PAYLOAD","status":"ACTIVE","operator":null,"country":"US","launch_date":"2025-06-10","launch_site_code":"AFETR","launch_vehicle":null,"mission":null,"orbit_class":"UNKNOWN","rcs_meters":null,"size_class":null,"mass_kg":null,"dimensions":null,"purposes":["comms"],"wikipedia_slug":null,"has_3d_model":false,"image_url":null,"decayed_at":null,"tle_current":{"epoch":"2026-09-20T19:12:12.272256Z","epoch_age_seconds":108460,"freshness":"FRESH","line1":"1 64327U 25124L   26263.80014204  .00139502  00000+0  10649-2 0  9995","line2":"2 64327  42.9995 292.8425 0001642 294.4351  65.6346 15.71010290 73528","mean_motion":15.7101029,"eccentricity":0.0001642,"inclination_deg":42.9995,"raan_deg":292.8425,"arg_perigee_deg":294.4351,"mean_anomaly_deg":65.6346,"bstar":0.0010649,"rev_number":7352,"period_min":91.660761814615,"perigee_km":354.90263817175,"apogee_km":357.11413151613,"semimajor_km":6734.1453848439,"source":"CELESTRAK","updated_at":"2026-09-21T09:00:35.312491Z"}}}